GW0656 Weather Reports


Display with metric or nautical units.
time (UTC)temp
F
wind
direction
speed
MPH
gust
MPH
rain 1hr
in
rain 24hr
in
rain mn
in
humidity
%
barometer
mb
20260905214024 94 298 1.0 4.0 0.00 0.00 0.00 55 1011.1
20260905213519 95 267 2.0 7.0 0.00 0.00 0.00 53 1011.0
20260905213055 95 297 3.0 9.0 0.00 0.00 0.00 53 1011.1
20260905212519 95 307 4.0 9.0 0.00 0.00 0.00 54 1011.1
20260905212019 94 0 1.0 4.0 0.00 0.00 0.00 55 1011.0
20260905211545 94 11 1.0 5.0 0.00 0.00 0.00 54 1011.1
20260905211024 94 327 1.0 8.0 0.00 0.00 0.00 55 1011.1
20260905210525 95 338 4.0 8.0 0.00 0.00 0.00 53 1011.1
20260905210041 95 275 2.0 10.0 0.00 0.00 0.00 55 1011.2
20260905205527 95 18 6.0 10.0 0.00 0.00 0.00 53 1011.2
20260905205024 96 331 3.0 10.0 0.00 0.00 0.00 53 1011.2
20260905204546 95 344 1.0 5.0 0.00 0.00 0.00 54 1011.3
20260905204020 95 287 2.0 5.0 0.00 0.00 0.00 54 1011.3
20260905203520 95 74 3.0 8.0 0.00 0.00 0.00 54 1011.5
20260905203052 95 0 1.0 8.0 0.00 0.00 0.00 53 1011.5
20260905202528 95 292 1.0 8.0 0.00 0.00 0.00 56 1011.5
20260905202024 95 321 3.0 8.0 0.00 0.00 0.00 54 1011.7
20260905201555 95 340 3.0 7.0 0.00 0.00 0.00 56 1011.7
20260905201024 94 222 0.0 8.0 0.00 0.00 0.00 56 1011.8
20260905200523 94 0 1.0 8.0 0.00 0.00 0.00 54 1011.8
20260905200044 94 296 3.0 8.0 0.00 0.00 0.00 55 1011.9
20260905195526 94 279 4.0 8.0 0.00 0.00 0.00 54 1011.9
20260905195026 94 221 2.0 7.0 0.00 0.00 0.00 57 1012.0
20260905194545 94 145 2.0 7.0 0.00 0.00 0.00 55 1012.1
20260905194024 94 302 2.0 11.0 0.00 0.00 0.00 58 1012.3
20260905193524 94 273 6.0 11.0 0.00 0.00 0.00 55 1012.3
20260905193042 94 188 3.0 8.0 0.00 0.00 0.00 59 1012.3
20260905192524 93 313 1.0 9.0 0.00 0.00 0.00 56 1012.3
20260905192024 94 350 5.0 9.0 0.00 0.00 0.00 55 1012.3
20260905191541 94 278 1.0 9.0 0.00 0.00 0.00 58 1012.3
20260905191021 94 275 2.0 9.0 0.00 0.00 0.00 57 1012.4
20260905190523 93 276 1.0 5.0 0.00 0.00 0.00 56 1012.5
20260905190045 93 163 1.0 5.0 0.00 0.00 0.00 58 1012.7
20260905185526 93 285 3.0 6.0 0.00 0.00 0.00 58 1012.7
20260905185025 93 279 3.0 6.0 0.00 0.00 0.00 57 1012.8
20260905184549 93 139 2.0 5.0 0.00 0.00 0.00 57 1012.9
20260905184024 93 178 1.0 6.0 0.00 0.00 0.00 58 1013.0
20260905183524 92 177 2.0 6.0 0.00 0.00 0.00 58 1013.0
20260905183101 92 288 1.0 4.0 0.00 0.00 0.00 58 1013.0
20260905182525 92 0 2.0 5.0 0.00 0.00 0.00 59 1013.0
20260905182029 91 179 2.0 5.0 0.00 0.00 0.00 57 1013.1
20260905181544 91 192 2.0 6.0 0.00 0.00 0.00 59 1013.2
20260905181023 91 97 2.0 7.0 0.00 0.00 0.00 60 1013.3
20260905180526 91 200 3.0 7.0 0.00 0.00 0.00 61 1013.5
20260905180050 90 126 3.0 7.0 0.00 0.00 0.00 61 1013.5
20260905175530 90 0 2.0 7.0 0.00 0.00 0.00 61 1013.5
20260905175024 90 249 3.0 6.0 0.00 0.00 0.00 62 1013.6
20260905174543 89 157 1.0 5.0 0.00 0.00 0.00 65 1013.7
20260905174024 89 87 2.0 5.0 0.00 0.00 0.00 60 1013.8
20260905173524 89 350 2.0 5.0 0.00 0.00 0.00 62 1013.8
20260905173043 89 302 2.0 8.0 0.00 0.00 0.00 63 1013.9
20260905172524 88 72 4.0 9.0 0.00 0.00 0.00 62 1014.0
20260905172025 89 100 5.0 9.0 0.00 0.00 0.00 62 1013.9
20260905171543 88 9 1.0 7.0 0.00 0.00 0.00 62 1014.0
20260905171023 89 38 2.0 7.0 0.00 0.00 0.00 62 1014.1
20260905170524 89 75 2.0 7.0 0.00 0.00 0.00 66 1014.1
20260905170058 88 0 1.0 6.0 0.00 0.00 0.00 66 1014.2
20260905165523 88 5 1.0 6.0 0.00 0.00 0.00 66 1014.3
20260905165024 87 268 2.0 9.0 0.00 0.00 0.00 66 1014.3
20260905164544 87 0 1.0 9.0 0.00 0.00 0.00 66 1014.4
20260905164023 87 55 1.0 9.0 0.00 0.00 0.00 68 1014.5
20260905163528 86 44 3.0 9.0 0.00 0.00 0.00 67 1014.5
20260905163042 86 49 4.0 9.0 0.00 0.00 0.00 66 1014.6
20260905162526 86 74 4.0 10.0 0.00 0.00 0.00 67 1014.7
20260905162023 86 84 2.0 10.0 0.00 0.00 0.00 66 1014.6
20260905161547 86 138 6.0 10.0 0.00 0.00 0.00 68 1014.5
20260905161028 85 133 1.0 8.0 0.00 0.00 0.00 69 1014.5
20260905160530 85 134 4.0 8.0 0.00 0.00 0.00 70 1014.5
20260905160107 85 0 1.0 8.0 0.00 0.00 0.00 70 1014.6
20260905155528 84 71 4.0 8.0 0.00 0.00 0.00 71 1014.7
20260905155022 84 69 5.0 8.0 0.00 0.00 0.00 70 1014.7
20260905154551 84 46 3.0 7.0 0.00 0.00 0.00 72 1014.7
20260905154022 83 63 1.0 8.0 0.00 0.00 0.00 75 1014.9
20260905153524 83 32 3.0 9.0 0.00 0.00 0.00 75 1014.9
20260905153041 82 360 4.0 9.0 0.00 0.00 0.00 74 1014.9
20260905152525 82 48 3.0 10.0 0.00 0.00 0.00 75 1015.0
20260905152024 81 28 5.0 10.0 0.00 0.00 0.00 75 1015.0
20260905151550 81 34 4.0 10.0 0.00 0.00 0.00 76 1015.1
20260905151025 81 75 5.0 11.0 0.00 0.00 0.00 77 1015.1
20260905150525 80 44 4.0 11.0 0.00 0.00 0.00 76 1015.1
20260905150051 80 69 5.0 12.0 0.00 0.00 0.00 76 1015.0
20260905145523 80 94 7.0 16.0 0.00 0.00 0.00 76 1015.0
20260905145024 81 79 9.0 16.0 0.00 0.00 0.00 75 1015.1
20260905144543 81 63 8.0 15.0 0.00 0.00 0.00 75 1015.0
20260905144021 82 71 6.0 15.0 0.00 0.00 0.00 76 1015.0
20260905143524 81 24 6.0 17.0 0.00 0.00 0.00 76 1015.0
20260905143042 81 103 8.0 17.0 0.00 0.00 0.00 77 1014.8
20260905142524 81 83 9.0 17.0 0.00 0.00 0.00 75 1015.0
20260905142025 81 44 8.0 15.0 0.00 0.00 0.00 75 1015.3
20260905141546 81 67 9.0 14.0 0.00 0.00 0.00 75 1015.0
20260905141027 82 65 9.0 19.0 0.00 0.00 0.00 75 1015.2
20260905140525 82 26 8.0 19.0 0.00 0.00 0.00 76 1015.1
20260905140049 82 48 6.0 12.0 0.00 0.00 0.00 78 1015.1
20260905135526 82 69 6.0 11.0 0.00 0.00 0.00 79 1015.0
20260905135025 81 48 3.0 7.0 0.00 0.00 0.00 80 1015.2
20260905134548 82 63 3.0 6.0 0.00 0.00 0.00 79 1015.0
20260905134024 82 76 3.0 5.0 0.00 0.00 0.00 81 1014.8
20260905133525 81 121 2.0 8.0 0.00 0.00 0.00 82 1014.8
20260905133047 80 67 3.0 8.0 0.00 0.00 0.00 83 1014.9
20260905132525 80 80 2.0 5.0 0.00 0.00 0.00 84 1015.0
20260905132027 79 80 1.0 5.0 0.00 0.00 0.00 85 1014.9
20260905131545 79 42 2.0 4.0 0.00 0.00 0.00 86 1015.0
20260905131026 78 48 1.0 9.0 0.00 0.00 0.00 86 1014.9
20260905130524 78 44 2.0 11.0 0.00 0.00 0.00 86 1015.0
20260905130044 78 57 5.0 11.0 0.00 0.00 0.00 87 1015.0
20260905125526 78 52 3.0 6.0 0.00 0.00 0.00 89 1015.1
20260905125025 77 39 1.0 8.0 0.00 0.00 0.00 90 1014.9
20260905124540 76 21 4.0 11.0 0.00 0.00 0.00 92 1014.8
20260905124024 75 49 5.0 11.0 0.00 0.00 0.00 94 1014.9
20260905123523 75 82 0.0 2.0 0.00 0.00 0.00 95 1014.8
20260905123045 74 0 0.0 2.0 0.00 0.00 0.00 95 1014.6
20260905122525 74 0 0.0 2.0 0.00 0.00 0.00 95 1014.6
20260905122028 74 0 0.0 2.0 0.00 0.00 0.00 95 1014.7
20260905121545 73 0 0.0 0.0 0.00 0.00 0.00 94 1014.5
20260905121030 73 0 0.0 0.0 0.00 0.00 0.00 94 1014.4
20260905120526 72 0 0.0 0.0 0.00 0.00 0.00 94 1014.4
20260905120042 72 0 0.0 2.0 0.00 0.00 0.00 93 1014.4
20260905115528 72 0 0.0 2.0 0.00 0.00 0.00 93 1014.3
20260905115025 72 0 0.0 0.0 0.00 0.00 0.00 93 1014.3
20260905114547 72 0 0.0 2.0 0.00 0.00 0.00 93 1014.3
20260905114025 73 0 0.0 2.0 0.00 0.00 0.00 93 1014.3
20260905113525 73 0 0.0 2.0 0.00 0.00 0.00 93 1014.3
20260905113043 73 82 0.0 2.0 0.00 0.00 0.00 93 1014.1
20260905112525 73 0 0.0 1.0 0.00 0.00 0.00 93 1014.0
20260905112023 73 82 0.0 1.0 0.00 0.00 0.00 93 1013.9
20260905111542 73 0 0.0 0.0 0.00 0.00 0.00 93 1013.8
20260905111023 73 0 0.0 1.0 0.00 0.00 0.00 93 1013.8
20260905110524 73 0 0.0 1.0 0.00 0.00 0.00 93 1013.6
20260905110048 73 0 0.0 1.0 0.00 0.00 0.00 93 1013.6
20260905105525 73 82 0.0 1.0 0.00 0.00 0.00 92 1013.4
20260905105025 73 0 0.0 1.0 0.00 0.00 0.00 92 1013.3
20260905104601 73 82 0.0 1.0 0.00 0.00 0.00 92 1013.3
20260905104023 73 0 0.0 0.0 0.00 0.00 0.00 92 1013.3
20260905103525 73 0 0.0 0.0 0.00 0.00 0.00 93 1013.2
20260905103042 73 0 0.0 1.0 0.00 0.00 0.00 93 1013.5
20260905102524 73 0 0.0 2.0 0.00 0.00 0.00 92 1013.3
20260905102024 73 0 0.0 2.0 0.00 0.00 0.00 92 1013.4
20260905101541 74 82 0.0 2.0 0.00 0.00 0.00 92 1013.4
20260905101023 74 0 0.0 1.0 0.00 0.00 0.00 92 1013.3
20260905100526 74 82 0.0 1.0 0.00 0.00 0.00 92 1013.3
20260905100046 74 0 0.0 1.0 0.00 0.00 0.00 92 1013.2
20260905095527 74 0 0.0 1.0 0.00 0.00 0.00 92 1013.3
20260905095028 74 0 0.0 1.0 0.00 0.00 0.00 92 1013.1
20260905094539 74 0 0.0 1.0 0.00 0.00 0.00 92 1013.1
20260905094058 74 0 0.0 1.0 0.00 0.00 0.00 91 1013.1
20260905093525 74 0 0.0 0.0 0.00 0.00 0.00 91 1013.1
20260905093042 74 0 0.0 1.0 0.00 0.00 0.00 91 1013.0
20260905092524 74 0 0.0 1.0 0.00 0.00 0.00 91 1013.0
20260905092029 74 0 0.0 1.0 0.00 0.00 0.00 92 1012.9
20260905091542 74 82 0.0 1.0 0.00 0.00 0.00 92 1012.9
20260905091025 74 0 0.0 2.0 0.00 0.00 0.00 92 1012.9
20260905090524 74 0 0.0 2.0 0.00 0.00 0.00 92 1012.8
20260905090111 74 0 0.0 1.0 0.00 0.00 0.00 92 1012.8
20260905085524 74 0 0.0 1.0 0.00 0.00 0.00 92 1012.8
20260905085024 74 0 0.0 1.0 0.00 0.00 0.00 92 1012.9
20260905084543 74 0 0.0 1.0 0.00 0.00 0.00 92 1012.9
20260905084025 74 0 0.0 0.0 0.00 0.00 0.00 92 1012.9
20260905083525 74 0 0.0 0.0 0.00 0.00 0.00 92 1012.9
20260905083041 74 0 0.0 0.0 0.00 0.00 0.00 92 1013.0
20260905082528 74 0 0.0 2.0 0.00 0.00 0.00 92 1012.9
20260905082021 74 0 0.0 2.0 0.00 0.00 0.00 92 1012.8
20260905081547 74 0 0.0 0.0 0.00 0.00 0.00 92 1012.8
20260905081027 74 0 0.0 0.0 0.00 0.00 0.00 92 1012.9
20260905080524 74 0 0.0 0.0 0.00 0.00 0.00 92 1012.8
20260905080041 74 0 0.0 0.0 0.00 0.00 0.00 92 1012.9
20260905075525 74 0 0.0 0.0 0.00 0.00 0.00 92 1013.0
20260905075023 74 0 0.0 2.0 0.00 0.00 0.00 92 1013.0
20260905074544 74 0 0.0 2.0 0.00 0.00 0.00 92 1013.1
20260905074025 74 82 0.0 3.0 0.00 0.00 0.00 92 1013.0
20260905073528 74 0 0.0 3.0 0.00 0.00 0.00 92 1013.1
20260905073047 74 82 1.0 3.0 0.00 0.00 0.00 92 1013.1
20260905072524 74 0 0.0 3.0 0.00 0.00 0.00 92 1013.1
20260905072026 74 82 1.0 3.0 0.00 0.00 0.00 92 1013.2
20260905071543 75 0 0.0 1.0 0.00 0.00 0.00 92 1013.3
20260905071024 75 0 0.0 1.0 0.00 0.00 0.00 91 1013.3
20260905070523 75 0 0.0 0.0 0.00 0.00 0.00 91 1013.3
20260905070047 75 0 0.0 0.0 0.00 0.00 0.00 91 1013.3
20260905065523 75 0 0.0 0.0 0.00 0.00 0.00 91 1013.4
20260905065023 75 0 0.0 0.0 0.00 0.00 0.00 91 1013.4
20260905064542 75 0 0.0 0.0 0.00 0.00 0.00 91 1013.4
20260905064025 75 0 0.0 0.0 0.00 0.00 0.00 91 1013.4
20260905063524 75 0 0.0 0.0 0.00 0.00 0.00 91 1013.5
20260905063042 75 0 0.0 0.0 0.00 0.00 0.00 91 1013.5
20260905062525 75 0 0.0 0.0 0.00 0.00 0.00 91 1013.6
20260905062024 75 0 0.0 0.0 0.00 0.00 0.00 91 1013.6
20260905061545 75 0 0.0 0.0 0.00 0.00 0.00 91 1013.7
20260905061023 76 0 0.0 1.0 0.00 0.00 0.00 91 1013.8
20260905060524 76 0 0.0 1.0 0.00 0.00 0.00 91 1013.8
20260905060043 76 0 0.0 1.0 0.00 0.00 0.00 91 1013.8
20260905055526 76 82 0.0 2.0 0.00 0.00 0.00 91 1013.9
20260905055020 76 0 0.0 2.0 0.00 0.00 0.00 91 1013.8
20260905054541 76 0 0.0 0.0 0.00 0.00 0.00 92 1014.0
20260905054023 76 0 0.0 0.0 0.00 0.00 0.00 92 1013.9
20260905053523 76 0 0.0 1.0 0.00 0.00 0.00 92 1014.0
20260905053044 76 0 0.0 1.0 0.00 0.00 0.00 92 1014.0
20260905052526 76 0 0.0 1.0 0.00 0.00 0.00 91 1014.0
20260905052027 76 82 0.0 2.0 0.00 0.00 0.00 91 1014.0
20260905051544 76 0 0.0 2.0 0.00 0.00 0.00 91 1014.0
20260905051024 76 0 0.0 2.0 0.00 0.00 0.00 91 1014.0
20260905050524 76 0 0.0 2.0 0.00 0.00 0.00 91 1014.0
20260905050042 76 0 0.0 2.0 0.00 0.00 0.00 92 1014.0
20260905045532 76 82 0.0 2.0 0.00 0.00 0.00 92 1014.1
20260905045021 76 0 0.0 0.0 0.00 0.00 0.00 91 1014.0
20260905044549 76 0 0.0 0.0 0.00 0.00 0.00 91 1014.0
20260905044022 76 0 0.0 0.0 0.00 0.00 0.00 91 1014.0
20260905043524 76 0 0.0 0.0 0.00 0.00 0.00 91 1014.0
20260905043044 76 0 0.0 0.0 0.00 0.00 0.00 91 1014.0
20260905042529 76 0 0.0 0.0 0.00 0.00 0.00 90 1013.9
20260905042025 77 0 0.0 2.0 0.00 0.00 0.00 90 1014.0
20260905041550 77 0 0.0 2.0 0.00 0.00 0.00 90 1014.0
20260905041023 77 82 0.0 2.0 0.00 0.00 0.00 90 1014.0
20260905040524 77 0 0.0 1.0 0.00 0.00 0.00 90 1014.0
20260905040050 77 0 0.0 0.0 0.00 0.00 0.00 90 1013.9
20260905035520 77 0 0.0 1.0 0.00 0.00 0.00 90 1014.1
20260905035023 77 0 0.0 1.0 0.00 0.00 0.00 90 1014.2
20260905034548 77 0 0.0 1.0 0.00 0.00 0.00 90 1014.2
20260905034025 77 0 0.0 1.0 0.00 0.00 0.00 90 1014.2
20260905033526 77 0 0.0 1.0 0.00 0.00 0.00 90 1014.2
20260905033047 77 0 0.0 2.0 0.00 0.00 0.00 90 1014.3
20260905032527 77 0 0.0 2.0 0.00 0.00 0.00 90 1014.3
20260905032028 77 82 1.0 2.0 0.00 0.00 0.00 90 1014.3
20260905031548 77 82 1.0 2.0 0.00 0.00 0.00 90 1014.2
20260905031024 78 0 0.0 2.0 0.00 0.00 0.00 89 1014.1
20260905030524 78 82 1.0 2.0 0.00 0.00 0.00 89 1014.1
20260905030046 78 82 0.0 2.0 0.00 0.00 0.00 89 1014.2
20260905025524 78 0 0.0 2.0 0.00 0.00 0.00 89 1014.3
20260905025026 78 0 0.0 2.0 0.00 0.00 0.00 88 1014.3
20260905024542 79 0 0.0 2.0 0.00 0.00 0.00 88 1014.2
20260905024025 79 0 0.0 1.0 0.00 0.00 0.00 88 1014.1
20260905023524 79 0 0.0 0.0 0.00 0.00 0.00 87 1014.1
20260905023045 79 0 0.0 0.0 0.00 0.00 0.00 86 1014.0
20260905022523 79 0 0.0 0.0 0.00 0.00 0.00 87 1014.0
20260905022024 79 0 0.0 0.0 0.00 0.00 0.00 87 1014.1
20260905021538 80 0 0.0 0.0 0.00 0.00 0.00 86 1014.0
20260905021025 80 0 0.0 0.0 0.00 0.00 0.00 86 1014.0
20260905020521 80 0 0.0 1.0 0.00 0.00 0.00 86 1014.0
20260905020040 80 0 0.0 2.0 0.00 0.00 0.00 86 1013.9
20260905015528 80 82 0.0 2.0 0.00 0.00 0.00 86 1014.0
20260905015024 80 82 0.0 2.0 0.00 0.00 0.00 85 1013.9
20260905014544 81 0 1.0 2.0 0.00 0.00 0.00 85 1013.9
20260905014024 81 82 0.0 2.0 0.00 0.00 0.00 83 1013.7
20260905013526 81 0 0.0 1.0 0.00 0.00 0.00 82 1013.7
20260905013107 81 0 0.0 1.0 0.00 0.00 0.00 82 1013.7
20260905012521 82 0 0.0 1.0 0.00 0.00 0.00 82 1013.8
20260905012024 82 0 0.0 0.0 0.00 0.00 0.00 82 1013.5
20260905011540 82 0 0.0 0.0 0.00 0.00 0.00 81 1013.5
20260905011024 83 0 0.0 0.0 0.00 0.00 0.00 80 1013.4
20260905010524 84 0 0.0 0.0 0.00 0.00 0.00 78 1013.4
20260905010043 84 0 0.0 1.0 0.00 0.00 0.00 77 1013.4
20260905005525 84 0 0.0 1.0 0.00 0.00 0.00 78 1013.4
20260905005024 85 82 0.0 1.0 0.00 0.00 0.00 77 1013.3
20260905004606 86 0 0.0 0.0 0.00 0.00 0.00 74 1013.3
20260905004023 86 0 0.0 0.0 0.00 0.00 0.00 75 1013.2
20260905003526 86 0 0.0 0.0 0.00 0.00 0.00 74 1013.3
20260905003047 87 0 0.0 0.0 0.00 0.00 0.00 72 1013.3
20260905002524 87 0 0.0 1.0 0.00 0.00 0.00 72 1013.3
20260905002026 88 0 0.0 1.0 0.00 0.00 0.00 70 1013.4
20260905001554 88 0 0.0 1.0 0.00 0.00 0.00 69 1013.4
20260905001022 89 0 0.0 1.0 0.00 0.00 0.00 68 1013.4
20260905000523 89 0 0.0 0.0 0.00 0.00 0.00 67 1013.4
20260905000048 90 0 0.0 0.0 0.00 0.00 0.00 66 1013.4
20260904235524 90 0 0.0 0.0 0.00 0.00 0.00 65 1013.4
20260904235023 90 0 0.0 0.0 0.00 0.00 0.00 65 1013.4
20260904234542 91 0 0.0 1.0 0.00 0.00 0.00 64 1013.5
20260904234023 91 0 0.0 1.0 0.00 0.00 0.00 64 1013.5
20260904233520 92 0 0.0 1.0 0.00 0.00 0.00 63 1013.5
20260904233038 92 0 0.0 3.0 0.00 0.00 0.00 64 1013.5
20260904232521 93 0 0.0 3.0 0.00 0.00 0.00 63 1013.4
20260904232027 93 82 1.0 3.0 0.00 0.00 0.00 58 1013.4
20260904231546 94 41 1.0 3.0 0.00 0.00 0.00 59 1013.4
20260904231024 95 0 0.0 0.0 0.00 0.00 0.00 60 1013.4
20260904230525 96 0 0.0 0.0 0.00 0.00 0.00 60 1013.4
20260904230043 95 0 0.0 2.0 0.00 0.00 0.00 56 1013.4
20260904225525 95 0 0.0 2.0 0.00 0.00 0.00 52 1013.4
20260904225024 95 0 0.0 5.0 0.00 0.00 0.00 52 1013.4
20260904224541 95 41 2.0 5.0 0.00 0.00 0.00 50 1013.4
20260904224024 96 343 2.0 5.0 0.00 0.00 0.00 49 1013.4
20260904223525 96 5 2.0 4.0 0.00 0.00 0.00 51 1013.4
20260904223047 96 320 1.0 5.0 0.00 0.00 0.00 51 1013.4
20260904222527 96 320 3.0 5.0 0.00 0.00 0.00 51 1013.4
20260904222024 96 313 1.0 4.0 0.00 0.00 0.00 50 1013.4
20260904221549 95 51 1.0 4.0 0.00 0.00 0.00 50 1013.4
20260904221024 95 51 2.0 5.0 0.00 0.00 0.00 49 1013.3
20260904220524 96 0 2.0 5.0 0.00 0.00 0.00 50 1013.4
20260904220052 96 41 2.0 6.0 0.00 0.00 0.00 52 1013.4
20260904215523 96 34 2.0 7.0 0.00 0.00 0.00 50 1013.4
20260904215024 96 10 3.0 8.0 0.00 0.00 0.00 50 1013.3
20260904214543 96 287 4.0 8.0 0.00 0.00 0.00 49 1013.4